Regional Weather Roundup
Issued by NWS Jackson, KY

Home | Current Version | Previous Version | Graphics & Text | Print | Product List | Glossary On
Versions: 1 2 3 4 5 6 7 8 9 10 11 12 13 14 15 16 17 18 19 20 21 22 23 24 25 26 27 28 29 30 31 32 33 34 35 36 37 38 39 40 41 42 43 44 45 46 47 48 49 50
000
ASUS43 KJKL 032210
RWRJKL

EAST KENTUCKY HOURLY WEATHER ROUNDUP
NATIONAL WEATHER SERVICE JACKSON KY
600 PM EDT SUN MAY 03 2015

NOTE: "FAIR" INDICATES FEW OR NO CLOUDS BELOW 12,000 FEET WITH
NO SIGNIFICANT WEATHER AND/OR OBSTRUCTIONS TO VISIBILITY.

* THESE REPORTS ARE NOT UNDER NWS QUALITY CONTROL AND MAY NOT
  REPORT WEATHER SUCH AS PRECIPITATION AND FOG.

KYZ079-080-083-085-087-088-110-112-115-119-120-032300
...EASTERN KENTUCKY...

CITY           SKY/WX    TMP DP  RH WIND       PRES   REMARKS
JACKSON        MOSUNNY   77  43  29 VRB3      30.11S
LONDON         MOSUNNY   77  40  26 S3        30.10S
SOMERSET*      SUNNY     75  45  33 SW8       30.10S
MONTICELLO*    MOSUNNY   78  48  34 W7        30.11F
MIDDLESBORO*   SUNNY     76  43  31 SE5       30.11F
HARLAN APT*    PTCLDY    77  32  19 NW6       30.12S
HAZARD APT*    CLEAR     77  41  27 CALM      30.11S
BLACK MTN*       N/A     66  37  34 S1          N/A
PIKEVILLE APT* SUNNY     73  39  29 CALM      30.12S
BIG SANDY*     CLEAR    N/A N/A N/A CALM      30.11S
MOREHEAD APT*  CLEAR     77  45  31 W6        30.11F
$$

KYZ035-036-041-042-044-050-067-078-099-032300
...CENTRAL KENTUCKY...

CITY           SKY/WX    TMP DP  RH WIND       PRES   REMARKS
MT STERLING*   SUNNY     77  46  33 W5        30.11F
FLEMING/MASON* SUNNY     75  46  35 SW3       30.10F
DANVILLE*      MOSUNNY   77  45  31 SW7       30.10S
RICHMOND*      MOSUNNY   75  45  33 W6        30.09F
LEXINGTON      SUNNY     76  48  37 S7        30.09F
FRANKFORT      SUNNY     76  45  33 S8        30.07S
$$

KYZ091>093-OHZ055-061-077-WVZ005-015-034-035-042-032300
...SOUTHERN OHIO/WEST VIRGINIA...

CITY           SKY/WX    TMP DP  RH WIND       PRES   REMARKS
COVINGTON      MOSUNNY   76  47  35 S12       30.07S
COLUMBUS       MOSUNNY   76  43  30 SW13      30.07S
DAYTON         MOSUNNY   76  47  35 S8        30.07S
WILMINGTON     MOSUNNY   73  44  35 S9        30.07S
HUNTINGTON     SUNNY     76  41  28 VRB6      30.09S
CHARLESTON     MOSUNNY   79  34  19 W8        30.10S
PINEVILLE*     PTSUNNY   72  45  38 MISG      30.17S
BECKLEY        MOSUNNY   71  31  22 CALM      30.15S
BLUEFIELD      PTSUNNY   74  31  20 NW3       30.17S
$$

VAZ002-007-008-TNZ017-027-036-066-071-032300
...SOUTHWEST VIRGINIA/EAST TENNESSEE...

CITY           SKY/WX    TMP DP  RH WIND       PRES   REMARKS
WISE*          CLOUDY    73  32  21 E5        30.17S
JONESVILLE*    PTCLDY    77  36  22 SW7       30.14S
ABINGDON*      SUNNY     76  37  24 NW6       30.15R
BRISTOL        MOSUNNY   76  41  28 N5        30.12S
KNOXVILLE      MOSUNNY   77  44  30 W9        30.10F
OAK RIDGE      SUNNY     79  44  28 VRB6      30.12S
CROSSVILLE     MOSUNNY   74  45  35 VRB3      30.13F
NASHVILLE      PTSUNNY   79  48  33 S9        30.08S
$$

...KEY TO REMARKS...
VSB - VISIBILITY IN MILES
WCI - WIND CHILL INDEX
HX  - HEAT INDEX

$$



USA.gov is the U.S. government's official web portal to all federal, state and local government web resources and services.